Time,TemperatureF,DewpointF,PressureIn,WindDirection,WindDirectionDegrees,WindSpeedMPH,WindSpeedGustMPH,Humidity,HourlyPrecipIn,Conditions,Clouds,dailyrainin,SoftwareType,DateUTC
2013-03-23 00:00:00,17.1,14.4,30.14,NE,36,0.0,0.0,89,0.00,,---,0.00,VWS V14.00,2013-03-23 05:00:00,
2013-03-23 00:05:00,16.8,14.1,30.14,NE,36,0.0,0.0,89,0.00,,---,0.00,VWS V14.00,2013-03-23 05:05:00,
2013-03-23 00:10:00,16.5,13.8,30.14,NE,36,0.0,0.0,89,0.00,,---,0.00,VWS V14.00,2013-03-23 05:10:00,
2013-03-23 00:15:00,16.2,13.5,30.14,NE,36,0.0,0.0,89,0.00,,---,0.00,VWS V14.00,2013-03-23 05:15:00,
2013-03-23 00:20:00,15.9,13.2,30.14,NE,36,0.0,0.0,89,0.00,,---,0.00,VWS V14.00,2013-03-23 05:20:00,
2013-03-23 00:25:00,15.7,13.0,30.14,NE,36,0.0,0.0,89,0.00,,---,0.00,VWS V14.00,2013-03-23 05:25:00,
2013-03-23 00:30:00,15.4,12.7,30.14,NE,36,0.0,0.0,89,0.00,,---,0.00,VWS V14.00,2013-03-23 05:30:00,
2013-03-23 00:35:00,15.2,12.8,30.14,NE,36,0.0,0.0,90,0.00,,---,0.00,VWS V14.00,2013-03-23 05:35:00,
2013-03-23 00:40:00,15.0,12.6,30.14,NE,36,0.0,0.0,90,0.00,,---,0.00,VWS V14.00,2013-03-23 05:40:00,
2013-03-23 00:45:00,14.8,12.4,30.14,NE,36,0.0,0.0,90,0.00,,---,0.00,VWS V14.00,2013-03-23 05:45:00,
2013-03-23 00:50:00,14.7,12.3,30.14,NE,36,0.0,0.0,90,0.00,,---,0.00,VWS V14.00,2013-03-23 05:50:00,
2013-03-23 00:55:00,14.6,12.2,30.14,NE,36,0.0,0.0,90,0.00,,---,0.00,VWS V14.00,2013-03-23 05:55:00,
2013-03-23 01:00:00,14.7,12.6,30.15,NE,36,0.0,0.0,91,0.00,,---,0.00,VWS V14.00,2013-03-23 06:00:00,
2013-03-23 01:05:00,14.8,12.6,30.15,NE,36,0.0,0.0,91,0.00,,---,0.00,VWS V14.00,2013-03-23 06:05:00,
2013-03-23 01:10:00,15.0,13.1,30.15,North,360,0.0,2.0,92,0.00,,---,0.00,VWS V14.00,2013-03-23 06:10:00,
2013-03-23 01:15:00,15.3,13.4,30.15,North,360,0.0,2.0,92,0.00,,---,0.00,VWS V14.00,2013-03-23 06:15:00,
2013-03-23 01:20:00,15.5,13.6,30.15,North,360,0.0,0.0,92,0.00,,---,0.00,VWS V14.00,2013-03-23 06:20:00,
2013-03-23 01:25:00,15.7,13.8,30.15,North,360,0.0,0.0,92,0.00,,---,0.00,VWS V14.00,2013-03-23 06:25:00,
2013-03-23 01:30:00,15.9,14.0,30.16,North,360,0.0,0.0,92,0.00,,---,0.00,VWS V14.00,2013-03-23 06:30:00,
2013-03-23 01:35:00,16.3,14.6,30.16,North,360,0.0,0.0,93,0.00,,---,0.00,VWS V14.00,2013-03-23 06:35:00,
2013-03-23 01:40:00,16.7,15.0,30.16,North,360,0.0,0.0,93,0.00,,---,0.00,VWS V14.00,2013-03-23 06:40:00,
2013-03-23 01:45:00,17.1,15.4,30.16,North,360,0.0,1.0,93,0.00,,---,0.00,VWS V14.00,2013-03-23 06:45:00,
2013-03-23 01:50:00,17.3,15.6,30.16,North,360,0.0,0.0,93,0.00,,---,0.00,VWS V14.00,2013-03-23 06:50:00,
2013-03-23 01:55:00,17.5,15.8,30.16,North,360,0.0,0.0,93,0.00,,---,0.00,VWS V14.00,2013-03-23 06:55:00,
2013-03-23 02:00:00,17.8,16.1,30.16,North,360,0.0,2.0,93,0.00,,---,0.00,VWS V14.00,2013-03-23 07:00:00,
2013-03-23 02:05:00,18.3,16.6,30.16,North,360,0.0,0.0,93,0.00,,---,0.00,VWS V14.00,2013-03-23 07:05:00,
2013-03-23 02:10:00,18.6,16.9,30.16,North,360,0.0,1.0,93,0.00,,---,0.00,VWS V14.00,2013-03-23 07:10:00,
2013-03-23 02:15:00,18.8,17.1,30.16,North,360,0.0,2.0,93,0.00,,---,0.00,VWS V14.00,2013-03-23 07:15:00,
2013-03-23 02:20:00,19.0,17.3,30.16,North,360,0.0,0.0,93,0.00,,---,0.00,VWS V14.00,2013-03-23 07:20:00,
2013-03-23 02:25:00,19.2,17.3,30.15,North,360,0.0,0.0,92,0.00,,---,0.00,VWS V14.00,2013-03-23 07:25:00,
2013-03-23 02:30:00,19.3,17.4,30.15,North,360,0.0,0.0,92,0.00,,---,0.00,VWS V14.00,2013-03-23 07:30:00,
2013-03-23 02:35:00,19.5,17.6,30.16,North,360,0.0,0.0,92,0.00,,---,0.00,VWS V14.00,2013-03-23 07:35:00,
2013-03-23 02:40:00,19.6,17.7,30.16,North,360,0.0,2.0,92,0.00,,---,0.00,VWS V14.00,2013-03-23 07:40:00,
2013-03-23 02:45:00,19.7,17.5,30.16,North,360,0.0,3.0,91,0.00,,---,0.00,VWS V14.00,2013-03-23 07:45:00,
2013-03-23 02:50:00,19.8,17.6,30.15,North,360,0.0,1.0,91,0.00,,---,0.00,VWS V14.00,2013-03-23 07:50:00,
2013-03-23 02:55:00,19.9,17.7,30.16,North,360,0.0,2.0,91,0.00,,---,0.00,VWS V14.00,2013-03-23 07:55:00,
2013-03-23 03:00:00,19.9,17.7,30.15,North,360,0.0,3.0,91,0.00,,---,0.00,VWS V14.00,2013-03-23 08:00:00,
2013-03-23 03:05:00,20.0,17.8,30.15,North,11,0.0,0.0,91,0.00,,---,0.00,VWS V14.00,2013-03-23 08:05:00,
2013-03-23 03:10:00,20.0,17.5,30.15,North,11,0.0,3.0,90,0.00,,---,0.00,VWS V14.00,2013-03-23 08:10:00,
2013-03-23 03:15:00,20.1,17.6,30.16,NNE,18,2.0,6.0,90,0.00,,---,0.00,VWS V14.00,2013-03-23 08:15:00,
2013-03-23 03:20:00,20.2,17.7,30.15,NNE,16,0.0,3.0,90,0.00,,---,0.00,VWS V14.00,2013-03-23 08:20:00,
2013-03-23 03:25:00,20.2,17.7,30.16,NNE,16,1.0,3.0,90,0.00,,---,0.00,VWS V14.00,2013-03-23 08:25:00,
2013-03-23 03:30:00,20.3,17.8,30.16,NNE,16,0.0,3.0,90,0.00,,---,0.00,VWS V14.00,2013-03-23 08:30:00,
2013-03-23 03:35:00,20.3,17.8,30.16,North,5,0.0,0.0,90,0.00,,---,0.00,VWS V14.00,2013-03-23 08:35:00,
2013-03-23 03:40:00,20.3,17.8,30.15,North,5,0.0,2.0,90,0.00,,---,0.00,VWS V14.00,2013-03-23 08:40:00,
2013-03-23 03:45:00,20.3,17.8,30.15,North,5,0.0,2.0,90,0.00,,---,0.00,VWS V14.00,2013-03-23 08:45:00,
2013-03-23 03:50:00,20.3,17.8,30.15,North,355,0.0,3.0,90,0.00,,---,0.00,VWS V14.00,2013-03-23 08:50:00,
2013-03-23 03:55:00,20.3,17.8,30.15,North,355,0.0,3.0,90,0.00,,---,0.00,VWS V14.00,2013-03-23 08:55:00,
2013-03-23 04:00:00,20.3,17.8,30.15,North,355,0.0,3.0,90,0.00,,---,0.00,VWS V14.00,2013-03-23 09:00:00,
2013-03-23 04:05:00,20.3,17.8,30.15,North,355,0.0,0.0,90,0.00,,---,0.00,VWS V14.00,2013-03-23 09:05:00,
2013-03-23 04:10:00,20.3,17.8,30.15,North,355,0.0,0.0,90,0.00,,---,0.00,VWS V14.00,2013-03-23 09:10:00,
2013-03-23 04:15:00,20.3,17.8,30.15,North,355,0.0,0.0,90,0.00,,---,0.00,VWS V14.00,2013-03-23 09:15:00,
2013-03-23 04:20:00,20.3,17.8,30.14,North,355,0.0,0.0,90,0.00,,---,0.00,VWS V14.00,2013-03-23 09:20:00,
2013-03-23 04:25:00,20.3,17.8,30.14,North,355,0.0,0.0,90,0.00,,---,0.00,VWS V14.00,2013-03-23 09:25:00,
2013-03-23 04:30:00,20.3,17.8,30.15,North,355,0.0,0.0,90,0.00,,---,0.00,VWS V14.00,2013-03-23 09:30:00,
2013-03-23 04:35:00,20.2,17.7,30.14,North,355,0.0,0.0,90,0.00,,---,0.00,VWS V14.00,2013-03-23 09:35:00,
2013-03-23 04:40:00,20.3,17.8,30.14,North,355,0.0,0.0,90,0.00,,---,0.00,VWS V14.00,2013-03-23 09:40:00,
2013-03-23 04:45:00,20.2,17.7,30.14,North,355,0.0,0.0,90,0.00,,---,0.00,VWS V14.00,2013-03-23 09:45:00,
2013-03-23 04:50:00,20.2,17.7,30.15,North,355,0.0,0.0,90,0.00,,---,0.00,VWS V14.00,2013-03-23 09:50:00,
2013-03-23 04:55:00,20.2,17.7,30.14,North,355,0.0,0.0,90,0.00,,---,0.00,VWS V14.00,2013-03-23 09:55:00,
2013-03-23 05:00:00,20.2,17.7,30.14,North,355,0.0,0.0,90,0.00,,---,0.00,VWS V14.00,2013-03-23 10:00:00,
2013-03-23 05:05:00,20.2,17.7,30.14,North,355,0.0,0.0,90,0.00,,---,0.00,VWS V14.00,2013-03-23 10:05:00,
2013-03-23 05:10:00,20.1,17.9,30.14,North,355,0.0,0.0,91,0.00,,---,0.00,VWS V14.00,2013-03-23 10:10:00,
2013-03-23 05:15:00,20.1,17.9,30.14,North,355,0.0,0.0,91,0.00,,---,0.00,VWS V14.00,2013-03-23 10:15:00,
2013-03-23 05:20:00,20.1,17.9,30.13,North,355,0.0,0.0,91,0.00,,---,0.00,VWS V14.00,2013-03-23 10:20:00,
2013-03-23 05:25:00,20.1,17.9,30.13,North,355,0.0,0.0,91,0.00,,---,0.00,VWS V14.00,2013-03-23 10:25:00,
2013-03-23 05:30:00,20.1,17.9,30.13,North,355,0.0,0.0,91,0.00,,---,0.00,VWS V14.00,2013-03-23 10:30:00,
2013-03-23 05:35:00,20.1,17.9,30.13,North,355,0.0,0.0,91,0.00,,---,0.00,VWS V14.00,2013-03-23 10:35:00,
2013-03-23 05:40:00,20.1,17.9,30.12,North,355,0.0,0.0,91,0.00,,---,0.00,VWS V14.00,2013-03-23 10:40:00,
2013-03-23 05:45:00,20.1,17.9,30.12,North,355,0.0,0.0,91,0.00,,---,0.00,VWS V14.00,2013-03-23 10:45:00,
2013-03-23 05:50:00,20.1,17.9,30.13,North,355,0.0,0.0,91,0.00,,---,0.00,VWS V14.00,2013-03-23 10:50:00,
2013-03-23 05:55:00,20.2,18.0,30.13,North,355,0.0,0.0,91,0.00,,---,0.00,VWS V14.00,2013-03-23 10:55:00,
2013-03-23 06:00:00,20.2,18.0,30.13,North,355,0.0,0.0,91,0.00,,---,0.00,VWS V14.00,2013-03-23 11:00:00,
2013-03-23 06:05:00,20.2,18.0,30.13,North,355,0.0,0.0,91,0.00,,---,0.00,VWS V14.00,2013-03-23 11:05:00,
2013-03-23 06:10:00,20.2,18.0,30.14,North,355,0.0,0.0,91,0.00,,---,0.00,VWS V14.00,2013-03-23 11:10:00,
2013-03-23 06:15:00,20.3,18.1,30.14,North,355,0.0,0.0,91,0.00,,---,0.00,VWS V14.00,2013-03-23 11:15:00,
2013-03-23 06:20:00,20.3,18.1,30.14,North,355,0.0,0.0,91,0.00,,---,0.00,VWS V14.00,2013-03-23 11:20:00,
2013-03-23 06:25:00,20.3,18.1,30.13,North,355,0.0,0.0,91,0.00,,---,0.00,VWS V14.00,2013-03-23 11:25:00,
2013-03-23 06:30:00,20.4,18.2,30.14,NNE,21,2.0,2.0,91,0.00,,---,0.00,VWS V14.00,2013-03-23 11:30:00,
2013-03-23 06:35:00,20.5,18.3,30.13,NNE,22,0.0,5.0,91,0.00,,---,0.00,VWS V14.00,2013-03-23 11:35:00,
2013-03-23 06:40:00,20.7,18.2,30.14,NNE,29,0.0,3.0,90,0.00,,---,0.00,VWS V14.00,2013-03-23 11:40:00,
2013-03-23 06:45:00,20.8,18.3,30.14,NNE,29,0.0,3.0,90,0.00,,---,0.00,VWS V14.00,2013-03-23 11:45:00,
2013-03-23 06:50:00,20.9,18.4,30.14,NNE,29,0.0,0.0,90,0.00,,---,0.00,VWS V14.00,2013-03-23 11:50:00,
2013-03-23 06:55:00,20.9,18.2,30.15,NNE,29,0.0,3.0,89,0.00,,---,0.00,VWS V14.00,2013-03-23 11:55:00,
2013-03-23 07:00:00,21.0,18.3,30.15,NNE,29,0.0,3.0,89,0.00,,---,0.00,VWS V14.00,2013-03-23 12:00:00,
2013-03-23 07:05:00,21.1,18.4,30.16,NNE,29,1.0,2.0,89,0.00,,---,0.00,VWS V14.00,2013-03-23 12:05:00,
2013-03-23 07:10:00,21.1,18.4,30.16,NNE,29,0.0,2.0,89,0.00,,---,0.00,VWS V14.00,2013-03-23 12:10:00,
2013-03-23 07:15:00,21.2,18.5,30.16,North,360,0.0,3.0,89,0.00,,---,0.00,VWS V14.00,2013-03-23 12:15:00,
2013-03-23 07:20:00,21.2,18.2,30.16,North,360,0.0,1.0,88,0.00,,---,0.00,VWS V14.00,2013-03-23 12:20:00,
2013-03-23 07:25:00,21.3,18.3,30.17,North,360,0.0,1.0,88,0.00,,---,0.00,VWS V14.00,2013-03-23 12:25:00,
2013-03-23 07:30:00,21.4,18.4,30.17,North,360,0.0,2.0,88,0.00,,---,0.00,VWS V14.00,2013-03-23 12:30:00,
2013-03-23 07:35:00,21.4,18.4,30.17,North,360,0.0,0.0,88,0.00,,---,0.00,VWS V14.00,2013-03-23 12:35:00,
2013-03-23 07:40:00,21.5,18.5,30.18,North,360,0.0,0.0,88,0.00,,---,0.00,VWS V14.00,2013-03-23 12:40:00,
2013-03-23 07:45:00,21.5,18.5,30.18,North,360,0.0,0.0,88,0.00,,---,0.00,VWS V14.00,2013-03-23 12:45:00,
2013-03-23 07:50:00,21.6,18.6,30.18,North,360,0.0,0.0,88,0.00,,---,0.00,VWS V14.00,2013-03-23 12:50:00,
2013-03-23 07:55:00,21.7,18.7,30.18,North,360,0.0,1.0,88,0.00,,---,0.00,VWS V14.00,2013-03-23 12:55:00,
2013-03-23 08:00:00,21.7,18.4,30.18,North,360,0.0,1.0,87,0.00,,---,0.00,VWS V14.00,2013-03-23 13:00:00,
2013-03-23 08:05:00,21.8,18.5,30.18,North,360,0.0,0.0,87,0.00,,---,0.00,VWS V14.00,2013-03-23 13:05:00,
2013-03-23 08:10:00,22.0,18.7,30.18,North,360,0.0,0.0,87,0.00,,---,0.00,VWS V14.00,2013-03-23 13:10:00,
2013-03-23 08:15:00,22.1,18.8,30.18,North,360,0.0,1.0,87,0.00,,---,0.00,VWS V14.00,2013-03-23 13:15:00,
2013-03-23 08:20:00,22.2,18.7,30.18,North,360,0.0,0.0,86,0.00,,---,0.00,VWS V14.00,2013-03-23 13:20:00,
2013-03-23 08:25:00,22.4,19.1,30.18,North,360,0.0,0.0,87,0.00,,---,0.00,VWS V14.00,2013-03-23 13:25:00,
2013-03-23 08:30:00,22.5,19.0,30.18,North,360,0.0,0.0,86,0.00,,---,0.00,VWS V14.00,2013-03-23 13:30:00,
2013-03-23 08:35:00,22.6,18.8,30.18,North,360,0.0,0.0,85,0.00,,---,0.00,VWS V14.00,2013-03-23 13:35:00,
2013-03-23 08:40:00,22.8,19.0,30.18,North,5,0.0,2.0,85,0.00,,---,0.00,VWS V14.00,2013-03-23 13:40:00,
2013-03-23 08:45:00,23.0,18.9,30.18,North,355,0.0,2.0,84,0.00,,---,0.00,VWS V14.00,2013-03-23 13:45:00,
2013-03-23 08:50:00,23.0,18.9,30.18,SSE,150,3.0,4.0,84,0.00,,---,0.00,VWS V14.00,2013-03-23 13:50:00,
2013-03-23 08:55:00,22.9,18.8,30.18,SSE,161,0.0,4.0,84,0.00,,---,0.00,VWS V14.00,2013-03-23 13:55:00,
2013-03-23 09:00:00,23.0,18.9,30.18,NE,43,0.0,4.0,84,0.00,,---,0.00,VWS V14.00,2013-03-23 14:00:00,
2013-03-23 09:05:00,23.1,19.0,30.18,NNE,21,0.0,3.0,84,0.00,,---,0.00,VWS V14.00,2013-03-23 14:05:00,
2013-03-23 09:10:00,23.2,18.8,30.18,NNE,21,0.0,3.0,83,0.00,,---,0.00,VWS V14.00,2013-03-23 14:10:00,
2013-03-23 09:15:00,23.2,18.8,30.18,NNE,16,2.0,4.0,83,0.00,,---,0.00,VWS V14.00,2013-03-23 14:15:00,
2013-03-23 09:20:00,23.3,18.9,30.18,NNE,16,2.0,2.0,83,0.00,,---,0.00,VWS V14.00,2013-03-23 14:20:00,
2013-03-23 09:25:00,23.4,19.3,30.18,NNE,16,0.0,3.0,84,0.00,,---,0.00,VWS V14.00,2013-03-23 14:25:00,
2013-03-23 09:30:00,23.5,19.4,30.18,NNE,16,0.0,3.0,84,0.00,,---,0.00,VWS V14.00,2013-03-23 14:30:00,
2013-03-23 09:35:00,23.6,19.5,30.18,NNE,16,0.0,0.0,84,0.00,,---,0.00,VWS V14.00,2013-03-23 14:35:00,
2013-03-23 09:40:00,23.6,19.5,30.18,NNE,16,0.0,1.0,84,0.00,,---,0.00,VWS V14.00,2013-03-23 14:40:00,
2013-03-23 09:45:00,23.6,19.5,30.19,NNE,16,0.0,2.0,84,0.00,,---,0.00,VWS V14.00,2013-03-23 14:45:00,
2013-03-23 09:50:00,23.5,19.4,30.19,NNE,16,0.0,2.0,84,0.00,,---,0.00,VWS V14.00,2013-03-23 14:50:00,
2013-03-23 09:55:00,23.6,19.8,30.19,NNE,16,2.0,2.0,85,0.00,,---,0.00,VWS V14.00,2013-03-23 14:55:00,
2013-03-23 10:00:00,23.8,20.0,30.19,NNE,16,0.0,2.0,85,0.00,,---,0.00,VWS V14.00,2013-03-23 15:00:00,
2013-03-23 10:05:00,24.0,19.9,30.18,NNE,16,0.0,2.0,84,0.00,,---,0.00,VWS V14.00,2013-03-23 15:05:00,
2013-03-23 10:10:00,24.3,20.5,30.18,NNE,16,0.0,2.0,85,0.00,,---,0.00,VWS V14.00,2013-03-23 15:10:00,
2013-03-23 10:15:00,24.4,20.5,30.17,NNE,16,0.0,2.0,85,0.00,,---,0.00,VWS V14.00,2013-03-23 15:15:00,
2013-03-23 10:20:00,24.4,20.3,30.18,West,262,2.0,4.0,84,0.00,,---,0.00,VWS V14.00,2013-03-23 15:20:00,
2013-03-23 10:25:00,24.4,20.3,30.18,NW,304,1.0,4.0,84,0.00,,---,0.00,VWS V14.00,2013-03-23 15:25:00,
2013-03-23 10:30:00,24.4,20.3,30.17,NNW,342,3.0,4.0,84,0.00,,---,0.00,VWS V14.00,2013-03-23 15:30:00,
2013-03-23 10:35:00,24.4,20.3,30.18,WNW,287,0.0,3.0,84,0.00,,---,0.00,VWS V14.00,2013-03-23 15:35:00,
2013-03-23 10:40:00,24.4,20.5,30.19,SW,229,2.0,3.0,85,0.00,,---,0.00,VWS V14.00,2013-03-23 15:40:00,
2013-03-23 10:45:00,24.4,20.5,30.19,West,261,1.0,5.0,85,0.00,,---,0.00,VWS V14.00,2013-03-23 15:45:00,
2013-03-23 10:50:00,24.3,20.7,30.19,WSW,246,0.0,5.0,86,0.00,,---,0.00,VWS V14.00,2013-03-23 15:50:00,
2013-03-23 10:55:00,24.3,20.5,30.20,WSW,246,2.0,5.0,85,0.00,,---,0.00,VWS V14.00,2013-03-23 15:55:00,
2013-03-23 11:00:00,24.3,20.5,30.20,WSW,246,0.0,5.0,85,0.00,,---,0.00,VWS V14.00,2013-03-23 16:00:00,
2013-03-23 11:05:00,24.3,20.5,30.20,NE,37,0.0,1.0,85,0.00,,---,0.00,VWS V14.00,2013-03-23 16:05:00,
2013-03-23 11:10:00,24.4,20.5,30.20,NNE,26,1.0,3.0,85,0.00,,---,0.00,VWS V14.00,2013-03-23 16:10:00,
2013-03-23 11:15:00,24.5,20.4,30.19,NE,37,1.0,4.0,84,0.00,,---,0.00,VWS V14.00,2013-03-23 16:15:00,
2013-03-23 11:20:00,24.6,20.5,30.19,North,10,1.0,2.0,84,0.00,,---,0.00,VWS V14.00,2013-03-23 16:20:00,
2013-03-23 11:25:00,24.7,20.6,30.19,West,259,1.0,2.0,84,0.00,,---,0.00,VWS V14.00,2013-03-23 16:25:00,
2013-03-23 11:30:00,25.1,20.7,30.18,NE,53,3.0,4.0,83,0.00,,---,0.00,VWS V14.00,2013-03-23 16:30:00,
2013-03-23 11:35:00,25.5,20.8,30.17,NNE,17,0.0,3.0,82,0.00,,---,0.00,VWS V14.00,2013-03-23 16:35:00,
2013-03-23 11:40:00,25.5,20.5,30.17,WSW,242,2.0,5.0,81,0.00,,---,0.00,VWS V14.00,2013-03-23 16:40:00,
2013-03-23 11:45:00,25.6,20.9,30.18,NNE,29,3.0,5.0,82,0.00,,---,0.00,VWS V14.00,2013-03-23 16:45:00,
2013-03-23 11:50:00,25.6,20.6,30.18,NE,53,0.0,3.0,81,0.00,,---,0.00,VWS V14.00,2013-03-23 16:50:00,
2013-03-23 11:55:00,25.6,20.9,30.18,SE,140,2.0,4.0,82,0.00,,---,0.00,VWS V14.00,2013-03-23 16:55:00,
2013-03-23 12:00:00,25.7,21.0,30.19,NNW,339,0.0,4.0,82,0.00,,---,0.00,VWS V14.00,2013-03-23 17:00:00,
2013-03-23 12:05:00,25.7,21.0,30.19,West,268,0.0,3.0,82,0.00,,---,0.00,VWS V14.00,2013-03-23 17:05:00,
2013-03-23 12:10:00,25.8,21.1,30.19,West,268,1.0,3.0,82,0.00,,---,0.00,VWS V14.00,2013-03-23 17:10:00,
2013-03-23 12:15:00,26.0,21.3,30.20,WSW,249,0.0,3.0,82,0.00,,---,0.00,VWS V14.00,2013-03-23 17:15:00,
2013-03-23 12:20:00,25.8,20.8,30.20,SSW,197,0.0,3.0,81,0.00,,---,0.00,VWS V14.00,2013-03-23 17:20:00,
2013-03-23 12:25:00,25.7,21.0,30.19,WSW,248,2.0,6.0,82,0.00,,---,0.00,VWS V14.00,2013-03-23 17:25:00,
2013-03-23 12:30:00,25.7,21.0,30.19,NNE,31,3.0,6.0,82,0.00,,---,0.00,VWS V14.00,2013-03-23 17:30:00,
2013-03-23 12:35:00,25.7,21.0,30.19,WSW,239,2.0,3.0,82,0.00,,---,0.00,VWS V14.00,2013-03-23 17:35:00,
2013-03-23 12:40:00,26.0,21.3,30.18,NNE,30,0.0,4.0,82,0.00,,---,0.00,VWS V14.00,2013-03-23 17:40:00,
2013-03-23 12:45:00,26.3,21.6,30.17,NNE,20,1.0,5.0,82,0.00,,---,0.00,VWS V14.00,2013-03-23 17:45:00,
2013-03-23 12:50:00,26.4,21.1,30.17,North,355,7.0,10.0,80,0.00,,---,0.00,VWS V14.00,2013-03-23 17:50:00,
2013-03-23 12:55:00,26.6,21.3,30.17,NNE,28,0.0,10.0,80,0.00,,---,0.00,VWS V14.00,2013-03-23 17:55:00,
2013-03-23 13:00:00,26.9,21.6,30.17,NNE,32,4.0,10.0,80,0.00,,---,0.00,VWS V14.00,2013-03-23 18:00:00,
2013-03-23 13:05:00,27.0,21.4,30.16,NNE,33,0.0,4.0,79,0.00,,---,0.00,VWS V14.00,2013-03-23 18:05:00,
2013-03-23 13:10:00,27.2,21.6,30.16,NE,46,3.0,4.0,79,0.00,,---,0.00,VWS V14.00,2013-03-23 18:10:00,
2013-03-23 13:15:00,27.5,21.9,30.17,ENE,61,0.0,5.0,79,0.00,,---,0.00,VWS V14.00,2013-03-23 18:15:00,
2013-03-23 13:20:00,27.6,21.6,30.17,NW,324,2.0,6.0,78,0.00,,---,0.00,VWS V14.00,2013-03-23 18:20:00,
2013-03-23 13:25:00,27.5,21.5,30.17,NE,45,4.0,6.0,78,0.00,,---,0.00,VWS V14.00,2013-03-23 18:25:00,
2013-03-23 13:30:00,27.5,21.2,30.17,North,349,1.0,7.0,77,0.00,,---,0.00,VWS V14.00,2013-03-23 18:30:00,
2013-03-23 13:35:00,27.4,21.1,30.17,North,5,0.0,3.0,77,0.00,,---,0.00,VWS V14.00,2013-03-23 18:35:00,
2013-03-23 13:40:00,27.5,21.2,30.17,ENE,67,0.0,4.0,77,0.00,,---,0.00,VWS V14.00,2013-03-23 18:40:00,
2013-03-23 13:45:00,27.8,21.5,30.17,NE,44,0.0,6.0,77,0.00,,---,0.00,VWS V14.00,2013-03-23 18:45:00,
2013-03-23 13:50:00,27.9,21.6,30.17,NNW,328,0.0,4.0,77,0.00,,---,0.00,VWS V14.00,2013-03-23 18:50:00,
2013-03-23 13:55:00,28.1,21.8,30.16,NNE,20,2.0,5.0,77,0.00,,---,0.00,VWS V14.00,2013-03-23 18:55:00,
2013-03-23 14:00:00,28.3,21.7,30.16,NE,46,0.0,7.0,76,0.00,,---,0.00,VWS V14.00,2013-03-23 19:00:00,
2013-03-23 14:05:00,28.4,21.8,30.15,ENE,71,3.0,4.0,76,0.00,,---,0.00,VWS V14.00,2013-03-23 19:05:00,
2013-03-23 14:10:00,28.5,21.9,30.15,ENE,69,1.0,6.0,76,0.00,,---,0.00,VWS V14.00,2013-03-23 19:10:00,
2013-03-23 14:15:00,28.4,21.5,30.15,ENE,71,5.0,6.0,75,0.00,,---,0.00,VWS V14.00,2013-03-23 19:15:00,
2013-03-23 14:20:00,28.3,21.4,30.15,NNE,13,3.0,4.0,75,0.00,,---,0.00,VWS V14.00,2013-03-23 19:20:00,
2013-03-23 14:25:00,28.4,21.8,30.16,North,355,0.0,6.0,76,0.00,,---,0.00,VWS V14.00,2013-03-23 19:25:00,
2013-03-23 14:30:00,28.7,22.1,30.16,NNE,28,2.0,6.0,76,0.00,,---,0.00,VWS V14.00,2013-03-23 19:30:00,
2013-03-23 14:35:00,28.8,21.9,30.15,SSW,213,1.0,4.0,75,0.00,,---,0.00,VWS V14.00,2013-03-23 19:35:00,
2013-03-23 14:40:00,28.9,22.0,30.15,NNE,29,3.0,5.0,75,0.00,,---,0.00,VWS V14.00,2013-03-23 19:40:00,
2013-03-23 14:45:00,28.8,21.9,30.15,East,90,3.0,5.0,75,0.00,,---,0.00,VWS V14.00,2013-03-23 19:45:00,
2013-03-23 14:50:00,28.9,21.7,30.15,NNE,13,3.0,6.0,74,0.00,,---,0.00,VWS V14.00,2013-03-23 19:50:00,
2013-03-23 14:55:00,29.2,22.3,30.15,NNW,343,1.0,6.0,75,0.00,,---,0.00,VWS V14.00,2013-03-23 19:55:00,
2013-03-23 15:00:00,29.3,22.1,30.15,WNW,294,3.0,6.0,74,0.00,,---,0.00,VWS V14.00,2013-03-23 20:00:00,
2013-03-23 15:05:00,29.3,22.1,30.15,WSW,242,4.0,4.0,74,0.00,,---,0.00,VWS V14.00,2013-03-23 20:05:00,
2013-03-23 15:10:00,29.3,22.1,30.15,NE,43,3.0,4.0,74,0.00,,---,0.00,VWS V14.00,2013-03-23 20:10:00,
2013-03-23 15:15:00,29.4,21.8,30.15,NNE,28,0.0,6.0,73,0.00,,---,0.00,VWS V14.00,2013-03-23 20:15:00,
2013-03-23 15:20:00,29.6,22.4,30.15,NNE,28,0.0,0.0,74,0.00,,---,0.00,VWS V14.00,2013-03-23 20:20:00,
2013-03-23 15:25:00,30.0,22.7,30.15,West,269,2.0,5.0,74,0.00,,---,0.00,VWS V14.00,2013-03-23 20:25:00,
2013-03-23 15:30:00,30.1,23.1,30.15,West,280,0.0,5.0,75,0.00,,---,0.00,VWS V14.00,2013-03-23 20:30:00,
2013-03-23 15:35:00,30.2,22.9,30.14,NE,38,2.0,3.0,74,0.00,,---,0.00,VWS V14.00,2013-03-23 20:35:00,
2013-03-23 15:40:00,30.0,22.4,30.15,NNE,33,3.0,6.0,73,0.00,,---,0.00,VWS V14.00,2013-03-23 20:40:00,
2013-03-23 15:45:00,29.9,22.3,30.15,NE,40,0.0,6.0,73,0.00,,---,0.00,VWS V14.00,2013-03-23 20:45:00,
2013-03-23 15:50:00,29.8,22.2,30.14,SW,223,0.0,5.0,73,0.00,,---,0.00,VWS V14.00,2013-03-23 20:50:00,
2013-03-23 15:55:00,29.8,22.5,30.14,SW,223,0.0,5.0,74,0.00,,---,0.00,VWS V14.00,2013-03-23 20:55:00,
2013-03-23 16:00:00,30.0,23.0,30.14,WNW,286,2.0,5.0,75,0.00,,---,0.00,VWS V14.00,2013-03-23 21:00:00,
2013-03-23 16:05:00,30.1,22.8,30.14,NNE,25,0.0,7.0,74,0.00,,---,0.00,VWS V14.00,2013-03-23 21:05:00,
2013-03-23 16:10:00,30.0,22.7,30.15,NE,34,0.0,7.0,74,0.00,,---,0.00,VWS V14.00,2013-03-23 21:10:00,
2013-03-23 16:15:00,29.9,23.0,30.14,NW,309,0.0,7.0,75,0.00,,---,0.00,VWS V14.00,2013-03-23 21:15:00,
2013-03-23 16:20:00,29.7,22.4,30.14,NE,39,5.0,5.0,74,0.00,,---,0.00,VWS V14.00,2013-03-23 21:20:00,
2013-03-23 16:25:00,29.4,22.1,30.14,NE,45,0.0,5.0,74,0.00,,---,0.00,VWS V14.00,2013-03-23 21:25:00,
2013-03-23 16:30:00,29.3,22.1,30.14,NNE,33,0.0,6.0,74,0.00,,---,0.00,VWS V14.00,2013-03-23 21:30:00,
2013-03-23 16:35:00,29.2,22.3,30.14,ENE,61,0.0,2.0,75,0.00,,---,0.00,VWS V14.00,2013-03-23 21:35:00,
2013-03-23 16:40:00,29.2,22.0,30.14,NNE,18,1.0,3.0,74,0.00,,---,0.00,VWS V14.00,2013-03-23 21:40:00,
2013-03-23 16:45:00,29.2,22.3,30.13,ENE,69,0.0,5.0,75,0.00,,---,0.00,VWS V14.00,2013-03-23 21:45:00,
2013-03-23 16:50:00,29.3,22.4,30.13,North,5,0.0,6.0,75,0.00,,---,0.00,VWS V14.00,2013-03-23 21:50:00,
2013-03-23 16:55:00,29.4,22.8,30.13,North,5,0.0,6.0,76,0.00,,---,0.00,VWS V14.00,2013-03-23 21:55:00,
2013-03-23 17:00:00,29.4,22.1,30.14,NNE,28,0.0,6.0,74,0.00,,---,0.00,VWS V14.00,2013-03-23 22:00:00,
2013-03-23 17:05:00,29.2,22.0,30.14,NNE,28,1.0,1.0,74,0.00,,---,0.00,VWS V14.00,2013-03-23 22:05:00,
2013-03-23 17:10:00,29.1,21.9,30.13,NE,36,0.0,4.0,74,0.00,,---,0.00,VWS V14.00,2013-03-23 22:10:00,
2013-03-23 17:15:00,29.1,22.2,30.13,North,349,2.0,4.0,75,0.00,,---,0.00,VWS V14.00,2013-03-23 22:15:00,
2013-03-23 17:20:00,29.0,22.1,30.13,NNE,30,4.0,6.0,75,0.00,,---,0.00,VWS V14.00,2013-03-23 22:20:00,
2013-03-23 17:25:00,28.8,21.9,30.13,NNE,17,0.0,6.0,75,0.00,,---,0.00,VWS V14.00,2013-03-23 22:25:00,
2013-03-23 17:30:00,28.8,22.2,30.14,NNE,20,2.0,6.0,76,0.00,,---,0.00,VWS V14.00,2013-03-23 22:30:00,
2013-03-23 17:35:00,28.7,22.1,30.14,NNE,20,1.0,4.0,76,0.00,,---,0.00,VWS V14.00,2013-03-23 22:35:00,
2013-03-23 17:40:00,28.7,22.1,30.14,NNE,26,2.0,4.0,76,0.00,,---,0.00,VWS V14.00,2013-03-23 22:40:00,
2013-03-23 17:45:00,28.6,22.0,30.14,NE,46,1.0,4.0,76,0.00,,---,0.00,VWS V14.00,2013-03-23 22:45:00,
2013-03-23 17:50:00,28.6,21.7,30.14,NNE,22,0.0,3.0,75,0.00,,---,0.00,VWS V14.00,2013-03-23 22:50:00,
2013-03-23 17:55:00,28.6,21.7,30.14,NNE,21,2.0,3.0,75,0.00,,---,0.00,VWS V14.00,2013-03-23 22:55:00,
2013-03-23 18:00:00,28.6,21.7,30.14,NNE,30,1.0,3.0,75,0.00,,---,0.00,VWS V14.00,2013-03-23 23:00:00,
2013-03-23 18:05:00,28.6,22.0,30.15,NNE,30,0.0,2.0,76,0.00,,---,0.00,VWS V14.00,2013-03-23 23:05:00,
2013-03-23 18:10:00,28.5,21.9,30.15,NNE,30,0.0,3.0,76,0.00,,---,0.00,VWS V14.00,2013-03-23 23:10:00,
2013-03-23 18:15:00,28.4,21.5,30.14,NNE,13,1.0,4.0,75,0.00,,---,0.00,VWS V14.00,2013-03-23 23:15:00,
2013-03-23 18:20:00,28.3,21.4,30.15,NNE,13,2.0,3.0,75,0.00,,---,0.00,VWS V14.00,2013-03-23 23:20:00,
2013-03-23 18:25:00,28.2,21.3,30.14,NE,45,0.0,5.0,75,0.00,,---,0.00,VWS V14.00,2013-03-23 23:25:00,
2013-03-23 18:30:00,28.1,21.2,30.14,NE,39,0.0,5.0,75,0.00,,---,0.00,VWS V14.00,2013-03-23 23:30:00,
2013-03-23 18:35:00,28.1,21.2,30.14,NE,39,0.0,1.0,75,0.00,,---,0.00,VWS V14.00,2013-03-23 23:35:00,
2013-03-23 18:40:00,28.1,21.5,30.14,NE,39,0.0,1.0,76,0.00,,---,0.00,VWS V14.00,2013-03-23 23:40:00,
2013-03-23 18:45:00,28.0,21.1,30.14,NE,39,0.0,2.0,75,0.00,,---,0.00,VWS V14.00,2013-03-23 23:45:00,
2013-03-23 18:50:00,28.0,21.4,30.14,NE,39,0.0,0.0,76,0.00,,---,0.00,VWS V14.00,2013-03-23 23:50:00,
2013-03-23 18:55:00,28.0,21.4,30.14,NNE,13,2.0,4.0,76,0.00,,---,0.00,VWS V14.00,2013-03-23 23:55:00,
2013-03-23 19:00:00,27.9,21.0,30.14,ENE,59,0.0,7.0,75,0.00,,---,0.00,VWS V14.00,2013-03-24 00:00:00,
2013-03-23 19:05:00,27.8,21.2,30.14,NNE,26,0.0,2.0,76,0.00,,---,0.00,VWS V14.00,2013-03-24 00:05:00,
2013-03-23 19:10:00,27.8,21.2,30.14,NNE,26,0.0,2.0,76,0.00,,---,0.00,VWS V14.00,2013-03-24 00:10:00,
2013-03-23 19:15:00,27.7,21.1,30.14,NNE,26,0.0,2.0,76,0.00,,---,0.00,VWS V14.00,2013-03-24 00:15:00,
2013-03-23 19:20:00,27.6,21.0,30.14,NNE,26,0.0,2.0,76,0.00,,---,0.00,VWS V14.00,2013-03-24 00:20:00,
2013-03-23 19:25:00,27.6,21.0,30.14,NNW,348,0.0,4.0,76,0.00,,---,0.00,VWS V14.00,2013-03-24 00:25:00,
2013-03-23 19:30:00,27.6,21.0,30.14,North,11,0.0,5.0,76,0.00,,---,0.00,VWS V14.00,2013-03-24 00:30:00,
2013-03-23 19:35:00,27.5,20.9,30.15,North,11,0.0,0.0,76,0.00,,---,0.00,VWS V14.00,2013-03-24 00:35:00,
2013-03-23 19:40:00,27.5,21.2,30.14,North,11,0.0,0.0,77,0.00,,---,0.00,VWS V14.00,2013-03-24 00:40:00,
2013-03-23 19:45:00,27.4,21.1,30.15,North,11,0.0,1.0,77,0.00,,---,0.00,VWS V14.00,2013-03-24 00:45:00,
2013-03-23 19:50:00,27.4,21.1,30.15,North,11,0.0,0.0,77,0.00,,---,0.00,VWS V14.00,2013-03-24 00:50:00,
2013-03-23 19:55:00,27.4,21.1,30.15,NW,305,0.0,3.0,77,0.00,,---,0.00,VWS V14.00,2013-03-24 00:55:00,
2013-03-23 20:00:00,27.4,21.1,30.15,NNE,31,0.0,3.0,77,0.00,,---,0.00,VWS V14.00,2013-03-24 01:00:00,
2013-03-23 20:05:00,27.3,21.1,30.15,NNE,31,0.0,0.0,77,0.00,,---,0.00,VWS V14.00,2013-03-24 01:05:00,
2013-03-23 20:10:00,27.3,21.4,30.15,NNE,31,0.0,0.0,78,0.00,,---,0.00,VWS V14.00,2013-03-24 01:10:00,
2013-03-23 20:15:00,27.2,21.3,30.15,NNE,31,0.0,0.0,78,0.00,,---,0.00,VWS V14.00,2013-03-24 01:15:00,
2013-03-23 20:20:00,27.2,21.3,30.15,NNE,31,0.0,2.0,78,0.00,,---,0.00,VWS V14.00,2013-03-24 01:20:00,
2013-03-23 20:25:00,27.1,21.2,30.16,NNE,31,1.0,2.0,78,0.00,,---,0.00,VWS V14.00,2013-03-24 01:25:00,
2013-03-23 20:30:00,27.1,21.2,30.16,NNE,31,0.0,2.0,78,0.00,,---,0.00,VWS V14.00,2013-03-24 01:30:00,
2013-03-23 20:35:00,27.0,21.1,30.16,NNE,31,0.0,0.0,78,0.00,,---,0.00,VWS V14.00,2013-03-24 01:35:00,
2013-03-23 20:40:00,27.0,21.1,30.16,NNE,31,0.0,2.0,78,0.00,,---,0.00,VWS V14.00,2013-03-24 01:40:00,
2013-03-23 20:45:00,26.9,21.0,30.16,NNE,31,0.0,2.0,78,0.00,,---,0.00,VWS V14.00,2013-03-24 01:45:00,
2013-03-23 20:50:00,26.9,21.0,30.16,NNE,31,0.0,0.0,78,0.00,,---,0.00,VWS V14.00,2013-03-24 01:50:00,
2013-03-23 20:55:00,26.8,20.9,30.16,NNE,31,0.0,1.0,78,0.00,,---,0.00,VWS V14.00,2013-03-24 01:55:00,
2013-03-23 21:00:00,26.7,20.8,30.16,NNE,31,0.0,1.0,78,0.00,,---,0.00,VWS V14.00,2013-03-24 02:00:00,
2013-03-23 21:05:00,26.7,20.8,30.17,NNE,31,0.0,0.0,78,0.00,,---,0.00,VWS V14.00,2013-03-24 02:05:00,
2013-03-23 21:10:00,26.6,20.7,30.17,NNE,31,0.0,0.0,78,0.00,,---,0.00,VWS V14.00,2013-03-24 02:10:00,
2013-03-23 21:15:00,26.6,20.7,30.17,NNE,31,0.0,0.0,78,0.00,,---,0.00,VWS V14.00,2013-03-24 02:15:00,
2013-03-23 21:20:00,26.5,20.6,30.17,NNE,31,0.0,0.0,78,0.00,,---,0.00,VWS V14.00,2013-03-24 02:20:00,
2013-03-23 21:25:00,26.5,20.6,30.16,NNE,31,0.0,0.0,78,0.00,,---,0.00,VWS V14.00,2013-03-24 02:25:00,
2013-03-23 21:30:00,26.4,20.8,30.16,NNE,31,1.0,1.0,79,0.00,,---,0.00,VWS V14.00,2013-03-24 02:30:00,
2013-03-23 21:35:00,26.4,20.8,30.16,NNW,347,0.0,4.0,79,0.00,,---,0.00,VWS V14.00,2013-03-24 02:35:00,
2013-03-23 21:40:00,26.4,20.8,30.16,NNW,347,0.0,4.0,79,0.00,,---,0.00,VWS V14.00,2013-03-24 02:40:00,
2013-03-23 21:45:00,26.3,21.0,30.16,NNW,347,0.0,4.0,80,0.00,,---,0.00,VWS V14.00,2013-03-24 02:45:00,
2013-03-23 21:50:00,26.3,20.7,30.16,NNW,347,0.0,0.0,79,0.00,,---,0.00,VWS V14.00,2013-03-24 02:50:00,
2013-03-23 21:55:00,26.2,20.9,30.16,NNW,347,0.0,0.0,80,0.00,,---,0.00,VWS V14.00,2013-03-24 02:55:00,
2013-03-23 22:00:00,26.2,21.2,30.16,NNW,347,0.0,0.0,81,0.00,,---,0.00,VWS V14.00,2013-03-24 03:00:00,
2013-03-23 22:05:00,26.1,20.8,30.15,NNW,347,0.0,0.0,80,0.00,,---,0.00,VWS V14.00,2013-03-24 03:05:00,
2013-03-23 22:10:00,26.1,20.8,30.16,NNW,347,0.0,0.0,80,0.00,,---,0.00,VWS V14.00,2013-03-24 03:10:00,
2013-03-23 22:15:00,26.1,21.1,30.15,NNW,347,0.0,0.0,81,0.00,,---,0.00,VWS V14.00,2013-03-24 03:15:00,
2013-03-23 22:20:00,26.0,21.0,30.15,NNW,347,0.0,2.0,81,0.00,,---,0.00,VWS V14.00,2013-03-24 03:20:00,
2013-03-23 22:25:00,26.0,20.4,30.15,NNW,347,0.0,2.0,79,0.00,,---,0.00,VWS V14.00,2013-03-24 03:25:00,
2013-03-23 22:30:00,26.0,20.4,30.15,NNW,347,0.0,2.0,79,0.00,,---,0.00,VWS V14.00,2013-03-24 03:30:00,
2013-03-23 22:35:00,25.9,20.3,30.15,NNW,347,0.0,0.0,79,0.00,,---,0.00,VWS V14.00,2013-03-24 03:35:00,
2013-03-23 22:40:00,26.0,20.4,30.15,NNW,347,0.0,0.0,79,0.00,,---,0.00,VWS V14.00,2013-03-24 03:40:00,
2013-03-23 22:45:00,25.9,20.3,30.15,NNW,347,0.0,0.0,79,0.00,,---,0.00,VWS V14.00,2013-03-24 03:45:00,
2013-03-23 22:50:00,25.9,20.3,30.15,NNW,347,0.0,0.0,79,0.00,,---,0.00,VWS V14.00,2013-03-24 03:50:00,
2013-03-23 22:55:00,25.9,20.3,30.15,NNW,347,0.0,0.0,79,0.00,,---,0.00,VWS V14.00,2013-03-24 03:55:00,
2013-03-23 23:00:00,25.9,20.6,30.15,NNW,347,0.0,0.0,80,0.00,,---,0.00,VWS V14.00,2013-03-24 04:00:00,
2013-03-23 23:05:00,25.8,20.5,30.16,NNW,347,0.0,0.0,80,0.00,,---,0.00,VWS V14.00,2013-03-24 04:05:00,
2013-03-23 23:10:00,25.8,20.5,30.16,NNW,347,0.0,0.0,80,0.00,,---,0.00,VWS V14.00,2013-03-24 04:10:00,
2013-03-23 23:15:00,25.8,20.5,30.16,NNW,347,1.0,2.0,80,0.00,,---,0.00,VWS V14.00,2013-03-24 04:15:00,
2013-03-23 23:20:00,25.7,20.1,30.16,NNW,347,0.0,1.0,79,0.00,,---,0.00,VWS V14.00,2013-03-24 04:20:00,
2013-03-23 23:25:00,25.7,20.4,30.16,NNW,347,0.0,1.0,80,0.00,,---,0.00,VWS V14.00,2013-03-24 04:25:00,
2013-03-23 23:30:00,25.6,20.3,30.16,NNW,347,0.0,1.0,80,0.00,,---,0.00,VWS V14.00,2013-03-24 04:30:00,
2013-03-23 23:35:00,25.6,20.3,30.16,NNW,347,1.0,1.0,80,0.00,,---,0.00,VWS V14.00,2013-03-24 04:35:00,
2013-03-23 23:40:00,25.6,20.3,30.16,NNW,348,0.0,2.0,80,0.00,,---,0.00,VWS V14.00,2013-03-24 04:40:00,
2013-03-23 23:45:00,25.5,20.2,30.16,NNW,347,0.0,2.0,80,0.00,,---,0.00,VWS V14.00,2013-03-24 04:45:00,
2013-03-23 23:50:00,25.5,20.2,30.16,NNW,347,0.0,0.0,80,0.00,,---,0.00,VWS V14.00,2013-03-24 04:50:00,
2013-03-23 23:55:00,25.5,20.5,30.16,NNW,348,0.0,0.0,81,0.00,,---,0.00,VWS V14.00,2013-03-24 04:55:00,